Regional Weather Roundup
Issued by NWS Albany, NY

Current Version | Previous Version | Graphics & Text | Print | Product List | Glossary Off
Versions: 1 2 3 4 5 6 7 8 9 10 11 12 13 14 15 16 17 18 19 20 21 22 23 24 25 26 27 28 29 30 31 32 33 34 35 36 37 38 39 40 41 42 43 44 45 46 47 48 49 50

132
ASUS41 KALY 260010
RWRALY

NEW YORK STATE HOURLY WEATHER ROUNDUP
NATIONAL WEATHER SERVICE ALBANY NY
800 PM EDT THU MAY 25 2017

NOTE: "FAIR" INDICATES FEW OR NO CLOUDS BELOW 12,000 FEET WITH NO
SIGNIFICANT WEATHER AND/OR NO OBSTRUCTIONS TO VISIBILITY.

NYZ032-033-038>043-046>054-057>066-NYZ062>081-082-084-260100-
EAST


CITY           SKY/WX    TMP DP  RH WIND       PRES   REMARKS
ALBANY         LGT RAIN  57  55  93 N3        29.63R FOG
GLENS FALLS    NOT AVBL
POUGHKEEPSIE   CLOUDY    58  54  86 NE6       29.56S
NEWBURGH       CLOUDY    57  57 100 E8        29.57F FOG
MONTGOMERY     LGT RAIN  58  56  93 NE9       29.55F FOG
WHITE PLAINS   DRZL/FOG  58  56  93 E12       29.54F VSB 1
ISLIP          FOG       58  58 100 E9        29.54S VSB 1/4
NEW YORK CITY  DRZL/FOG  57  56  96 NE16      29.53S VSB 1/2
CENTRAL PARK   CLOUDY    57  56  96 E8G18     29.55F FOG
$$

NYZ005>009-017-018-044>046-055-056-260100-
CENTRAL


CITY           SKY/WX    TMP DP  RH WIND       PRES   REMARKS
FULTON         CLOUDY    59  54  83 VRB6      29.54R
SYRACUSE       MOCLDY    57  55  93 E9        29.53R
ROME           CLOUDY    58  53  84 SE14      29.58S
ELMIRA         CLOUDY    63  57  81 E6        29.50S
BINGHAMTON     CLOUDY    56  54  93 SE7       29.53S
MONTICELLO     CLOUDY    54  54 100 E13       29.57F
$$

NYZ026>034-041>043-087-260100-
NORTH


CITY           SKY/WX    TMP DP  RH WIND       PRES   REMARKS
WATERTOWN      LGT RAIN  56  56 100 NE9       29.57R FOG
FORT DRUM      NOT AVBL
OGDENSBURG     RAIN      56  55  96 NE9       29.62R
MASSENA        LGT RAIN  57  55  93 NE18      29.64R
SARANAC LAKE   PTCLDY    53  50  89 E7        29.62R
PLATTSBURGH    LGT RAIN  55  53  93 SE3       29.69R FOG
$$

NYZ001>004-010>016-019>021-085-260100-
WEST


CITY           SKY/WX    TMP DP  RH WIND       PRES   REMARKS
NIAGARA FALLS  CLOUDY    58  54  86 E7        29.49R
BUFFALO        CLOUDY    57  55  93 NE3       29.49R
DUNKIRK        CLOUDY    58  58 100 W3        29.50R
JAMESTOWN      MOCLDY    57  52  82 NW6       29.51R
WELLSVILLE     CLOUDY    62  56  80 CALM      29.53R
ROCHESTER      DRIZZLE   59  57  93 E8        29.51R
PENN YAN       MOCLDY    61  55  81 SE5       29.51R
$$

             KEY
       WCI = WIND CHILL INDEX
       VSB = VISIBILITY
       HX  = HEAT INDEX
$$




USA.gov is the U.S. government's official web portal to all federal, state and local government web resources and services.